FW1023 Weather Reports


Display with metric or nautical units.
time (UTC)temp
F
wind
direction
speed
MPH
gust
MPH
rain 1hr
in
rain 24hr
in
rain mn
in
humidity
%
barometer
mb
20260506033628 70 68 2.0 4.0 0.00 0.01 0.00 91 1010.7
20260506033118 70 23 2.0 6.0 0.00 0.01 0.00 90 1010.6
20260506032608 70 45 2.0 6.0 0.00 0.01 0.00 90 1010.7
20260506032057 70 45 1.0 7.0 0.00 0.01 0.00 90 1010.6
20260506031548 70 68 3.0 8.0 0.00 0.01 0.00 89 1010.8
20260506031037 70 90 4.0 8.0 0.00 0.01 0.00 89 1010.7
20260506030527 70 90 0.0 6.0 0.00 0.01 0.00 88 1010.9
20260506030004 70 68 3.0 6.0 0.00 0.01 0.01 88 1010.6
20260506024957 70 90 1.0 7.0 0.00 0.01 0.01 89 1010.7
20260506024447 69 113 0.0 7.0 0.00 0.01 0.01 91 1010.7
20260506023937 69 68 2.0 7.0 0.00 0.01 0.01 92 1010.9
20260506022405 69 68 3.0 6.0 0.00 0.01 0.01 92 1010.9
20260506021856 70 90 2.0 6.0 0.00 0.01 0.01 91 1011.0
20260506021358 70 90 4.0 7.0 0.00 0.01 0.01 91 1010.7
20260506020836 70 113 2.0 7.0 0.00 0.01 0.01 90 1011.0
20260506020326 70 45 2.0 7.0 0.00 0.01 0.01 90 1011.1
20260506015815 70 135 2.0 6.0 0.00 0.01 0.01 90 1011.2
20260506015306 70 135 2.0 7.0 0.00 0.01 0.01 90 1011.4
20260506014755 70 135 2.0 7.0 0.00 0.01 0.01 90 1011.1
20260506013735 71 135 0.0 4.0 0.00 0.01 0.01 92 1011.1
20260506013225 71 90 0.0 4.0 0.00 0.01 0.01 92 1011.1
20260506012714 72 203 1.0 4.0 0.00 0.01 0.01 93 1011.0
20260506012204 72 90 2.0 4.0 0.00 0.01 0.01 92 1010.8
20260506011157 72 68 0.0 0.0 0.00 0.01 0.01 92 1010.8
20260506010634 73 68 0.0 0.0 0.00 0.01 0.01 92 1010.6
20260506010124 73 203 0.0 2.0 0.00 0.01 0.01 92 1010.5
20260506005614 73 113 0.0 4.0 0.00 0.01 0.01 92 1010.8
20260506005104 73 90 1.0 4.0 0.00 0.01 0.01 92 1010.7
20260506003533 74 45 0.0 2.0 0.00 0.01 0.01 93 1010.9
20260506003023 74 158 0.0 2.0 0.00 0.01 0.01 93 1010.6
20260506002513 74 158 0.0 4.0 0.00 0.01 0.01 92 1010.7
20260506002004 75 248 0.0 4.0 0.00 0.01 0.01 91 1010.8
20260506001453 75 203 2.0 4.0 0.00 0.01 0.01 91 1010.6
20260506000956 75 225 0.0 0.0 0.00 0.01 0.01 90 1010.6
20260506000433 76 225 0.0 2.0 0.00 0.01 0.01 90 1010.5
20260505235922 76 225 0.0 4.0 0.00 0.01 0.01 89 1010.5
20260505235412 76 225 1.0 4.0 0.00 0.01 0.01 89 1010.7
20260505234902 75 248 0.0 2.0 0.00 0.01 0.01 91 1010.1
20260505234351 75 225 0.0 4.0 0.00 0.01 0.01 91 1010.4
20260505233842 75 45 0.0 8.0 0.00 0.01 0.01 91 1010.3
20260505233332 75 180 4.0 8.0 0.00 0.01 0.01 92 1010.2
20260505232822 75 248 5.0 8.0 0.01 0.01 0.01 91 1010.3
20260505232312 76 203 2.0 6.0 0.01 0.01 0.01 88 1010.0
20260505231801 76 248 0.0 2.0 0.01 0.01 0.01 89 1009.8
20260505231251 76 248 0.0 2.0 0.01 0.01 0.01 89 1009.4
20260505230741 76 23 1.0 2.0 0.01 0.01 0.01 89 1008.8
20260505230231 76 0 1.0 2.0 0.01 0.01 0.01 89 1008.9
20260505225211 76 45 0.0 2.0 0.01 0.01 0.01 88 1009.0
20260505224701 76 23 0.0 2.0 0.01 0.01 0.01 89 1009.0
20260505224151 76 23 0.0 2.0 0.01 0.01 0.01 89 1009.2
20260505223642 76 23 0.0 2.0 0.01 0.01 0.01 90 1008.7
20260505223130 76 45 0.0 0.0 0.01 0.01 0.01 91 1009.2
20260505222633 76 45 0.0 0.0 0.00 0.00 0.00 91 1009.0
20260505222110 76 45 0.0 0.0 0.00 0.00 0.00 92 1008.9
20260505221601 76 68 0.0 0.0 0.00 0.00 0.00 91 1008.9
20260505221050 76 90 0.0 0.0 0.00 0.00 0.00 91 1009.3
20260505220539 77 113 0.0 0.0 0.00 0.00 0.00 90 1009.3
20260505220029 77 113 0.0 0.0 0.00 0.00 0.00 89 1009.0
20260505215520 77 90 0.0 0.0 0.00 0.00 0.00 88 1009.2
20260505215010 77 90 0.0 0.0 0.00 0.00 0.00 88 1008.7
20260505214459 77 113 0.0 0.0 0.00 0.00 0.00 87 1008.8
20260505213949 78 68 0.0 0.0 0.00 0.00 0.00 86 1008.7
20260505213444 78 68 0.0 0.0 0.00 0.00 0.00 85 1008.5
20260505212929 78 90 0.0 0.0 0.00 0.00 0.00 85 1008.6
20260505212418 78 90 0.0 0.0 0.00 0.00 0.00 85 1008.9
20260505211908 79 113 0.0 0.0 0.00 0.00 0.00 83 1009.0
20260505211400 79 113 0.0 0.0 0.00 0.00 0.00 81 1008.9
20260505210848 79 113 0.0 0.0 0.00 0.00 0.00 81 1009.0
20260505210338 79 113 0.0 0.0 0.00 0.00 0.00 80 1008.6
20260505205828 80 113 0.0 0.0 0.00 0.00 0.00 79 1008.9
20260505205317 80 113 0.0 0.0 0.00 0.00 0.00 79 1009.2
20260505204807 80 113 0.0 0.0 0.00 0.00 0.00 78 1009.0
20260505204258 80 113 0.0 2.0 0.00 0.00 0.00 77 1008.7
20260505203749 80 90 0.0 2.0 0.00 0.00 0.00 77 1009.0
20260505203239 80 90 0.0 4.0 0.00 0.00 0.00 77 1008.7
20260505202727 81 45 0.0 4.0 0.00 0.00 0.00 76 1008.6
20260505201706 81 23 2.0 4.0 0.00 0.00 0.00 75 1009.0
20260505201149 81 68 1.0 2.0 0.00 0.00 0.00 75 1009.2
20260505200647 81 23 0.0 4.0 0.00 0.00 0.00 76 1009.2
20260505200136 81 23 2.0 4.0 0.00 0.00 0.00 76 1009.4
20260505195626 81 45 2.0 4.0 0.00 0.00 0.00 75 1009.0
20260505195115 81 45 2.0 4.0 0.00 0.00 0.00 75 1009.2
20260505194604 81 45 2.0 4.0 0.00 0.00 0.00 74 1009.5
20260505194055 81 23 2.0 4.0 0.00 0.00 0.00 75 1009.3
20260505193546 81 90 1.0 6.0 0.00 0.00 0.00 75 1009.8
20260505193034 81 68 2.0 6.0 0.00 0.00 0.00 74 1009.7
20260505192527 82 23 0.0 4.0 0.00 0.00 0.00 74 1009.4
20260505192002 81 45 2.0 4.0 0.00 0.00 0.00 74 1009.5
20260505191505 81 90 0.0 4.0 0.00 0.00 0.00 74 1009.5
20260505190954 81 45 2.0 4.0 0.00 0.00 0.00 74 1009.5
20260505190444 80 68 0.0 6.0 0.00 0.00 0.00 75 1009.5
20260505185424 80 68 2.0 4.0 0.00 0.00 0.00 76 1009.5
20260505184914 80 68 2.0 4.0 0.00 0.00 0.00 76 1009.4
20260505184404 80 45 2.0 4.0 0.00 0.00 0.00 76 1009.6
20260505183854 80 68 0.0 4.0 0.00 0.00 0.00 76 1009.6
20260505183344 80 23 3.0 4.0 0.00 0.00 0.00 76 1009.7
20260505182833 80 45 2.0 6.0 0.00 0.00 0.00 76 1009.7
20260505182323 80 23 1.0 7.0 0.00 0.00 0.00 76 1009.8
20260505181813 80 23 3.0 7.0 0.00 0.00 0.00 76 1009.8
20260505181306 80 45 4.0 6.0 0.00 0.00 0.00 75 1009.8
20260505180752 80 90 1.0 7.0 0.00 0.00 0.00 75 1009.6
20260505180242 80 68 2.0 7.0 0.00 0.00 0.00 75 1009.7
20260505175732 80 45 4.0 7.0 0.00 0.00 0.00 74 1009.9
20260505174712 81 23 1.0 6.0 0.00 0.00 0.00 73 1009.8
20260505174202 81 23 2.0 7.0 0.00 0.00 0.00 74 1009.9
20260505173141 79 23 2.0 7.0 0.00 0.00 0.00 76 1010.2
20260505172632 79 45 4.0 7.0 0.00 0.00 0.00 76 1010.1
20260505172121 79 68 2.0 4.0 0.00 0.00 0.00 76 1010.2
20260505171611 79 68 2.0 6.0 0.00 0.00 0.00 76 1010.4
20260505171103 79 45 3.0 6.0 0.00 0.00 0.00 76 1010.5
20260505170551 78 23 2.0 8.0 0.00 0.00 0.00 77 1010.4
20260505170032 78 68 2.0 8.0 0.00 0.00 0.00 78 1010.6
20260505165530 79 68 2.0 7.0 0.00 0.00 0.00 76 1010.7
20260505165020 78 23 3.0 6.0 0.00 0.00 0.00 77 1010.8
20260505164510 79 68 3.0 4.0 0.00 0.00 0.00 78 1010.8
20260505163450 78 23 0.0 4.0 0.00 0.00 0.00 78 1011.1
20260505162940 78 90 2.0 4.0 0.00 0.00 0.00 79 1011.3
20260505162430 78 68 0.0 6.0 0.00 0.00 0.00 78 1011.2
20260505161919 78 23 2.0 8.0 0.00 0.00 0.00 79 1011.4
20260505161409 77 23 2.0 8.0 0.00 0.00 0.00 79 1011.3
20260505160349 77 68 2.0 6.0 0.00 0.00 0.00 79 1011.3
20260505152738 73 45 2.0 4.0 0.00 0.00 0.00 84 1011.9
20260505151718 74 45 2.0 2.0 0.00 0.00 0.00 82 1012.0
20260505151208 72 68 0.0 4.0 0.00 0.00 0.00 85 1012.2
20260505150657 72 68 2.0 4.0 0.00 0.00 0.00 85 1012.3
20260505140455 70 68 1.0 4.0 0.00 0.00 0.00 87 1012.5
20260505130254 69 45 0.0 4.0 0.00 0.00 0.00 85 1012.4
20260505124724 69 68 0.0 2.0 0.00 0.00 0.00 85 1012.2
20260505123152 68 68 0.0 4.0 0.00 0.00 0.00 86 1012.1
20260505122133 68 68 0.0 0.0 0.00 0.00 0.00 86 1012.1
20260505121622 68 45 0.0 0.0 0.00 0.00 0.00 86 1012.0
20260505121112 68 23 0.0 4.0 0.00 0.00 0.00 86 1012.1
20260505120051 67 45 0.0 0.0 0.00 0.00 0.00 87 1011.9
20260505115031 66 45 0.0 0.0 0.00 0.00 0.00 88 1011.9
20260505114007 66 68 0.0 0.0 0.00 0.00 0.00 89 1011.9
20260505113501 65 45 0.0 0.0 0.00 0.00 0.00 89 1011.8
20260505112951 65 23 0.0 0.0 0.00 0.00 0.00 89 1011.8
20260505112442 65 23 0.0 0.0 0.00 0.00 0.00 89 1011.8
20260505111930 65 45 0.0 0.0 0.00 0.00 0.00 90 1011.8
20260505111421 65 68 0.0 0.0 0.00 0.00 0.00 90 1011.6
20260505110910 65 45 0.0 0.0 0.00 0.00 0.00 90 1011.8
20260505110401 65 68 0.0 0.0 0.00 0.00 0.00 90 1011.5
20260505101729 64 45 0.0 0.0 0.00 0.00 0.00 92 1010.9
20260505101220 64 45 0.0 2.0 0.00 0.00 0.00 92 1010.6
20260505100159 64 0 0.0 2.0 0.00 0.00 0.00 93 1010.7
20260505095135 64 45 1.0 2.0 0.00 0.00 0.00 93 1010.9
20260505094628 64 45 0.0 2.0 0.00 0.00 0.00 93 1010.6
20260505094118 64 45 0.0 2.0 0.00 0.00 0.00 93 1010.7
20260505093608 64 0 0.0 2.0 0.00 0.00 0.00 93 1010.5
20260505093058 64 0 0.0 0.0 0.00 0.00 0.00 92 1010.5
20260505092548 64 0 0.0 0.0 0.00 0.00 0.00 92 1010.6
20260505092037 64 0 0.0 0.0 0.00 0.00 0.00 92 1010.3
20260505091531 64 45 0.0 2.0 0.00 0.00 0.00 92 1010.2
20260505091013 64 45 0.0 2.0 0.00 0.00 0.00 92 1010.2
20260505084426 64 23 0.0 0.0 0.00 0.00 0.00 92 1010.5
20260505083917 64 0 0.0 0.0 0.00 0.00 0.00 92 1010.2
20260505083406 64 0 0.0 0.0 0.00 0.00 0.00 91 1010.3
20260505082856 65 0 0.0 0.0 0.00 0.00 0.00 91 1010.3
20260505082346 65 0 0.0 0.0 0.00 0.00 0.00 91 1010.2
20260505081836 64 0 0.0 0.0 0.00 0.00 0.00 91 1010.2
20260505081326 64 0 0.0 0.0 0.00 0.00 0.00 90 1010.5
20260505080815 64 0 0.0 0.0 0.00 0.00 0.00 90 1010.2
20260505080305 65 0 0.0 0.0 0.00 0.00 0.00 89 1010.2
20260505075755 65 0 0.0 0.0 0.00 0.00 0.00 89 1010.3
20260505075245 65 0 0.0 0.0 0.00 0.00 0.00 89 1010.2
20260505074225 65 45 0.0 0.0 0.00 0.00 0.00 88 1010.3
20260505073714 65 23 0.0 0.0 0.00 0.00 0.00 87 1010.4
20260505073204 65 23 0.0 2.0 0.00 0.00 0.00 87 1010.4
20260505072655 65 23 0.0 2.0 0.00 0.00 0.00 87 1010.6
20260505072144 65 23 0.0 0.0 0.00 0.00 0.00 87 1010.5
20260505071634 65 45 0.0 0.0 0.00 0.00 0.00 86 1010.3
20260505070614 65 68 0.0 0.0 0.00 0.00 0.00 86 1010.4
20260505070117 65 45 0.0 0.0 0.00 0.00 0.00 86 1010.4
20260505065554 65 45 0.0 2.0 0.00 0.00 0.00 85 1010.3
20260505065044 65 23 0.0 2.0 0.00 0.00 0.00 85 1010.5
20260505064535 65 23 0.0 2.0 0.00 0.00 0.00 85 1010.7
20260505064023 65 23 0.0 2.0 0.00 0.00 0.00 85 1010.6
20260505063003 65 68 0.0 2.0 0.00 0.00 0.00 84 1010.6
20260505062453 65 45 1.0 2.0 0.00 0.00 0.00 84 1010.6
20260505061942 65 45 0.0 0.0 0.00 0.00 0.00 84 1010.7
20260505060922 65 90 0.0 2.0 0.00 0.00 0.00 83 1010.6
20260505060412 65 23 0.0 0.0 0.00 0.00 0.00 83 1010.3
20260505055902 65 23 0.0 0.0 0.00 0.00 0.00 83 1010.6
20260505055351 65 23 0.0 0.0 0.00 0.00 0.00 82 1010.5
20260505054854 65 45 0.0 0.0 0.00 0.00 0.00 82 1010.7
20260505054331 65 23 0.0 0.0 0.00 0.00 0.00 82 1010.7
20260505053821 65 23 0.0 0.0 0.00 0.00 0.00 82 1010.9
20260505053311 65 0 0.0 2.0 0.00 0.00 0.00 82 1010.8
20260505052801 66 0 0.0 2.0 0.00 0.00 0.00 81 1010.8
20260505052251 66 23 0.0 0.0 0.00 0.00 0.00 81 1010.8
20260505051741 66 23 0.0 2.0 0.00 0.00 0.00 81 1010.5
20260505051243 66 23 0.0 2.0 0.00 0.00 0.00 81 1010.8
20260505050721 66 338 0.0 2.0 0.00 0.00 0.00 81 1010.9
20260505050210 66 338 0.0 2.0 0.00 0.00 0.00 80 1010.7
20260505041549 66 113 0.0 2.0 0.00 0.00 0.00 79 1010.9
20260505041029 66 0 0.0 0.0 0.00 0.00 0.00 79 1011.0
20260505040519 66 0 0.0 2.0 0.00 0.00 0.00 79 1010.8
20260505040008 66 0 0.0 2.0 0.00 0.00 0.00 79 1010.9
20260505035459 66 23 0.0 2.0 0.00 0.00 0.00 79 1010.9
20260505034948 66 0 0.0 2.0 0.00 0.00 0.00 79 1010.6
20260505034438 65 23 0.0 2.0 0.00 0.00 0.00 79 1010.8
20260505033928 65 45 0.0 2.0 0.00 0.00 0.00 78 1010.5